GW4239 Weather Reports


time (UTC)temp
F
wind
direction
speed
knots
gust
knots
rain 1hr
in
rain 24hr
in
rain mn
in
humidity
%
barometer
mb
20260510202516 76 289 0.9 1.7 0.00 0.00 0.00 41 1015.2
20260510201517 78 236 3.5 7.8 0.00 0.00 0.00 38 1015.1
20260510200517 79 238 3.5 5.2 0.00 0.00 0.00 38 1015.1
20260510195517 80 251 4.3 8.7 0.00 0.00 0.00 37 1015.0
20260510194517 80 297 1.7 2.6 0.00 0.00 0.00 37 1015.0
20260510193517 81 265 1.7 3.5 0.00 0.00 0.00 38 1015.2
20260510192516 80 273 2.6 6.1 0.00 0.00 0.00 37 1015.2
20260510191537 80 300 2.6 5.2 0.00 0.00 0.00 36 1015.0
20260510190517 80 286 3.5 5.2 0.00 0.00 0.00 38 1015.2
20260510185517 80 314 3.5 7.0 0.00 0.00 0.00 37 1015.2
20260510184517 81 311 4.3 7.0 0.00 0.00 0.00 37 1015.3
20260510183517 80 251 2.6 6.1 0.00 0.00 0.00 38 1015.2
20260510182516 79 277 1.7 4.3 0.00 0.00 0.00 40 1015.3
20260510181517 79 247 0.9 5.2 0.00 0.00 0.00 40 1015.5
20260510180517 77 243 4.3 6.1 0.00 0.00 0.00 43 1015.5
20260510175537 77 317 6.1 7.8 0.00 0.00 0.00 40 1015.7
20260510174517 77 255 2.6 5.2 0.00 0.00 0.00 42 1015.9
20260510173517 77 274 1.7 3.5 0.00 0.00 0.00 44 1016.0
20260510172516 78 259 1.7 2.6 0.00 0.00 0.00 42 1016.1
20260510171517 77 264 4.3 9.6 0.00 0.00 0.00 43 1016.3
20260510170517 77 253 2.6 5.2 0.00 0.00 0.00 43 1016.2
20260510165537 78 259 5.2 9.6 0.00 0.00 0.00 41 1016.3
20260510164537 78 266 1.7 7.0 0.00 0.00 0.00 41 1016.2
20260510163516 77 333 2.6 7.8 0.00 0.00 0.00 40 1016.4
20260510162537 77 307 4.3 7.8 0.00 0.00 0.00 41 1016.5
20260510161517 76 240 6.1 8.7 0.00 0.00 0.00 45 1016.5
20260510160517 76 283 1.7 3.5 0.00 0.00 0.00 45 1016.5
20260510155537 75 276 2.6 5.2 0.00 0.00 0.00 46 1016.6
20260510154517 75 228 1.7 6.1 0.00 0.00 0.00 47 1016.6
20260510153516 75 264 3.5 4.3 0.00 0.00 0.00 46 1016.6
20260510152517 74 233 3.5 7.0 0.00 0.00 0.00 49 1016.6
20260510151517 74 291 2.6 4.3 0.00 0.00 0.00 51 1016.6
20260510150517 73 295 1.7 2.6 0.00 0.00 0.00 50 1016.5
20260510145516 73 268 1.7 4.3 0.00 0.00 0.00 52 1016.5
20260510144537 72 218 1.7 4.3 0.00 0.00 0.00 55 1016.6
20260510143516 71 298 0.9 1.7 0.00 0.00 0.00 57 1016.6
20260510142517 70 216 1.7 4.3 0.00 0.00 0.00 61 1016.6
20260510141537 68 305 1.7 2.6 0.00 0.00 0.00 64 1016.6
20260510140516 66 317 0.9 1.7 0.00 0.00 0.00 68 1016.7
20260510135517 64 74 0.9 1.7 0.00 0.00 0.00 72 1016.9
20260510134517 61 105 1.7 1.7 0.00 0.00 0.00 78 1016.8
20260510133517 60 150 0.9 1.7 0.00 0.00 0.00 80 1017.0
20260510132517 57 27 1.7 1.7 0.00 0.00 0.00 83 1017.2
20260510131517 56 32 1.7 1.7 0.00 0.00 0.00 88 1017.1
20260510130517 54 142 1.7 2.6 0.00 0.00 0.00 92 1017.1
20260510125517 53 117 0.9 1.7 0.00 0.00 0.00 97 1017.2
20260510124537 51 78 0.9 2.6 0.00 0.00 0.00 97 1017.3
20260510123517 50 83 0.9 1.7 0.00 0.00 0.00 97 1017.2
20260510122517 48 68 0.9 1.7 0.00 0.00 0.00 96 1017.0
20260510121517 48 71 0.9 2.6 0.00 0.00 0.00 96 1016.9
20260510120517 47 338 0.9 1.7 0.00 0.00 0.00 96 1016.9
20260510115516 47 0.0 0.0 0.00 0.00 0.00 96 1016.7
20260510114517 46 0.0 0.0 0.00 0.00 0.00 96 1016.8
20260510113516 46 0.0 0.0 0.00 0.00 0.00 96 1016.8
20260510112517 46 0.0 0.0 0.00 0.00 0.00 95 1016.7
20260510111517 46 0.0 0.0 0.00 0.00 0.00 96 1016.6
20260510110517 46 0.0 0.0 0.00 0.00 0.00 96 1016.4
20260510105516 46 0.0 0.0 0.00 0.00 0.00 96 1016.2
20260510104517 46 0.0 0.0 0.00 0.00 0.00 95 1016.1
20260510103516 46 0.0 0.0 0.00 0.00 0.00 95 1015.8
20260510102537 46 0.0 0.0 0.00 0.00 0.00 95 1015.7
20260510101517 46 0.0 0.0 0.00 0.00 0.00 95 1015.6
20260510100518 46 0.0 0.0 0.00 0.00 0.00 95 1015.4
20260510095517 46 0.0 0.0 0.00 0.00 0.00 95 1015.3
20260510094537 46 0.0 0.0 0.00 0.00 0.00 95 1015.4
20260510093537 46 0.0 0.0 0.00 0.00 0.00 95 1015.3
20260510092517 46 0.0 0.0 0.00 0.00 0.00 95 1015.3
20260510091517 46 0.0 0.0 0.00 0.00 0.00 95 1015.2
20260510090517 46 0.0 0.0 0.00 0.00 0.00 95 1015.0
20260510085517 46 0.0 0.0 0.00 0.00 0.00 95 1014.9
20260510084537 46 0.0 0.0 0.00 0.00 0.00 95 1014.8
20260510083517 45 0.0 0.0 0.00 0.00 0.00 94 1014.8
20260510082516 45 0.0 0.0 0.00 0.00 0.00 94 1014.7
20260510081516 46 0.0 0.0 0.00 0.00 0.00 94 1014.5
20260510080518 46 0.0 0.0 0.00 0.00 0.00 94 1014.5
20260510075517 46 0.0 0.0 0.00 0.00 0.00 94 1014.4
20260510074517 47 0.0 0.0 0.00 0.00 0.00 94 1014.3
20260510073517 47 0.0 0.0 0.00 0.00 0.00 94 1014.2
20260510072517 47 0.0 0.0 0.00 0.00 0.00 94 1014.1
20260510071517 46 0.0 0.0 0.00 0.00 0.00 94 1014.2
20260510070517 46 0.0 0.0 0.00 0.00 0.00 93 1014.1
20260510065517 46 0.0 0.0 0.00 0.00 0.00 93 1014.0
20260510064537 47 0.0 0.0 0.00 0.00 0.00 92 1014.1
20260510063517 47 0.0 0.0 0.00 0.00 0.00 92 1014.0
20260510062517 47 0.0 0.0 0.00 0.00 0.00 92 1014.1
20260510061518 47 0.0 0.0 0.00 0.00 0.00 92 1014.2
20260510060517 48 0.0 0.0 0.00 0.00 0.00 92 1014.2
20260510055517 48 0.0 0.9 0.00 0.00 0.00 92 1014.0
20260510054517 48 206 0.0 1.7 0.00 0.00 0.00 91 1014.0
20260510053517 49 0.0 1.7 0.00 0.00 0.00 91 1014.0
20260510052516 49 0.0 0.0 0.00 0.00 0.00 91 1014.1
20260510051516 49 0.0 0.0 0.00 0.00 0.00 91 1014.2
20260510050516 49 0.0 0.0 0.00 0.00 0.00 91 1014.2
20260510045517 49 0.0 0.0 0.00 0.00 0.00 90 1014.2
20260510044517 49 0.0 0.0 0.00 0.00 0.00 90 1014.2
20260510043537 50 277 0.0 0.9 0.00 0.00 0.00 89 1014.0
20260510042537 50 0.0 0.9 0.00 0.00 0.00 89 1014.2
20260510041517 50 0.0 0.9 0.00 0.00 0.00 88 1014.1
20260510040516 51 350 0.9 1.7 0.00 0.00 0.00 88 1014.1
20260510035517 51 0.0 0.0 0.00 0.00 0.00 88 1014.0
20260510034517 51 0.0 0.0 0.00 0.00 0.00 87 1014.0
20260510033516 52 0.0 0.0 0.00 0.00 0.00 86 1013.9
20260510032516 52 0.0 0.0 0.00 0.00 0.00 85 1013.9
20260510031516 52 0.0 0.0 0.00 0.00 0.00 85 1013.9
20260510030517 53 0.0 0.0 0.00 0.00 0.00 83 1013.7
20260510025517 53 0.0 0.0 0.00 0.00 0.00 83 1013.8
20260510024517 54 0.0 0.0 0.00 0.00 0.00 81 1013.9
20260510023517 54 0.0 0.0 0.00 0.00 0.00 81 1013.8
20260510022517 55 0.0 0.0 0.00 0.00 0.00 79 1013.6
20260510021517 55 0.0 0.0 0.00 0.00 0.00 78 1013.5
20260510020537 56 0.0 0.0 0.00 0.00 0.00 77 1013.2
20260510015517 57 0.0 0.0 0.00 0.00 0.00 75 1013.0
20260510014517 57 0.0 0.0 0.00 0.00 0.00 74 1012.8
20260510013517 58 0.0 0.0 0.00 0.00 0.00 73 1012.6
20260510012517 58 0.0 0.0 0.00 0.00 0.00 72 1012.3
20260510011517 59 0.0 0.0 0.00 0.00 0.00 71 1012.0
20260510010517 60 0.0 0.0 0.00 0.00 0.00 69 1012.0
20260510005517 60 0.0 0.0 0.00 0.00 0.00 67 1011.8
20260510004516 61 0.0 0.0 0.00 0.00 0.00 66 1011.8
20260510003517 62 0.0 0.0 0.00 0.00 0.00 64 1011.7
20260510002517 63 0.0 0.0 0.00 0.00 0.00 63 1011.6
20260510001517 64 0.0 0.0 0.00 0.00 0.00 60 1011.6
20260510000517 66 323 0.9 1.7 0.00 0.00 0.00 57 1011.4
20260509235517 67 323 0.0 1.7 0.00 0.00 0.00 54 1011.2
20260509234516 68 313 0.9 2.6 0.00 0.00 0.00 52 1011.0
20260509233517 68 313 2.6 4.3 0.00 0.00 0.00 50 1010.8
20260509232517 68 330 1.7 2.6 0.00 0.00 0.00 51 1010.7
20260509231517 69 329 1.7 2.6 0.00 0.00 0.00 49 1010.7
20260509230517 69 244 3.5 6.1 0.00 0.00 0.00 49 1010.7
20260509225517 70 342 1.7 2.6 0.00 0.00 0.00 49 1010.6
20260509224517 70 296 1.7 1.7 0.00 0.00 0.00 49 1010.7
20260509223516 70 218 1.7 2.6 0.00 0.00 0.00 49 1010.7
20260509222536 70 283 0.9 1.7 0.00 0.00 0.00 48 1010.8
20260509221516 71 251 1.7 4.3 0.00 0.00 0.00 47 1010.8
20260509220517 71 326 0.9 1.7 0.00 0.00 0.00 46 1010.7
20260509215517 71 303 1.7 7.0 0.00 0.00 0.00 46 1010.7
20260509214517 72 263 1.7 7.8 0.00 0.00 0.00 46 1010.7
20260509213537 71 256 3.5 6.1 0.00 0.00 0.00 47 1010.7
20260509212516 71 247 5.2 8.7 0.00 0.00 0.00 46 1010.6
20260509211517 71 275 2.6 7.0 0.00 0.00 0.00 47 1010.5
20260509210517 72 282 2.6 5.2 0.00 0.00 0.00 46 1010.4
20260509205517 72 249 4.3 8.7 0.00 0.00 0.00 46 1010.3
20260509204517 73 275 2.6 6.1 0.00 0.00 0.00 44 1010.3
20260509203516 73 299 3.5 5.2 0.00 0.00 0.00 43 1010.1